Temperature
14 14 14 13 13 13 13 13 12 12 12 12 12 12 12 12 12 12 12 12 12 12 12 12 12 12 13 13 13 13 13 14 14 14 14 14 15 15 15 15 16 16 16
15 14 14 13 13 13 13 13 13 12 12 12 12 12 12 12 12 12 12 11 12 12 12 12 12 12 12 13 13 13 13 13 13 14 14 14 14 14 15 15 15 15 15
15 14 14 14 13 13 13 13 13 13 12 12 12 12 12 12 12 12 12 12 12 12 12 12 12 12 12 12 12 13 13 13 13 13 13 14 14 14 14 15 15 15 15
15 14 14 14 13 13 13 13 13 13 12 12 12 12 12 12 12 12 12 11 11 11 12 12 12 12 12 12 12 12 13 13 13 13 13 13 13 14 14 14 14 14 15
15 14 14 14 14 13 13 13 13 13 13 12 12 12 12 12 12 12 12 12 12 12 12 12 12 12 12 12 12 12 13 13 13 13 13 13 13 13 14 14 14 14 14
15 14 14 14 14 14 13 13 13 13 13 12 12 12 12 12 12 12 12 12 12 12 11 12 12 12 12 12 12 12 13 12 13 12 13 13 13 13 13 13 13 14 14
15 15 15 14 14 14 13 13 13 13 13 13 12 12 12 12 12 12 12 12 12 12 12 12 12 12 12 12 12 12 12 12 13 12 13 13 13 13 13 13 13 13 13
15 15 15 14 14 14 13 13 13 13 13 13 12 12 12 12 12 12 12 12 12 12 12 12 12 12 12 12 12 12 12 12 12 12 12 12 12 13 13 13 13 13 13
15 15 15 15 14 14 14 13 13 13 13 12 12 12 12 12 12 12 12 12 12 12 12 12 12 12 12 12 12 12 12 12 12 13 13 13 13 13 13 12 12 12 13
15 15 15 15 14 14 14 13 13 13 13 12 12 12 12 12 12 12 12 12 12 12 12 11 12 12 12 12 12 12 12 12 12 12 12 12 12 12 12 12 12 12 12
16 15 15 14 14 14 14 13 13 13 13 12 12 12 12 12 12 12 12 12 12 12 12 11 11 12 12 12 12 12 12 12 12 12 12 12 12 12 12 12 12 12 12
16 15 15 14 14 14 14 13 13 13 12 12 12 12 12 12 12 12 12 12 12 12 11 11 11 12 12 12 12 12 12 12 12 12 12 12 12 12 12 12 12 12 12
15 15 15 14 14 14 13 13 12 12 12 12 12 12 12 12 12 12 12 12 12 12 11 12 12 11 11 11 11 11 11 11 11 11 11 11 11 11 11 12 12 12 12
15 15 14 14 14 13 13 13 12 12 12 12 11 11 11 11 11 11 11 11 11 11 11 11 11 11 11 11 11 11 11 11 11 11 11 11 11 11 11 11 11 11 11
15 14 14 14 13 13 13 13 12 12 12 12 11 11 11 11 11 11 11 11 11 11 10 10 10 10 10 10 10 10 10 10 10 10 10 10 10 10 10 10 10 11 11
14 14 14 13 13 12 12 12 12 12 12 11 11 11 11 11 11 11 11 11 11 10 10 10 10 10 10 10 10 10 10 10 10 9 9 10 10 10 10 10 10 10 10
14 14 14 13 13 12 12 11 11 11 11 11 11 11 11 10 10 10 10 10 10 10 10 10 9 9 9 9 9 9 9 9 9 9 9 9 9 9 9 9 9 9 9
14 14 13 13 12 12 11 11 10 10 10 10 10 10 10 10 10 10 10 9 9 9 9 9 9 8 8 8 8 8 8 8 8 8 8 8 8 8 8 8 8 8 8
14 13 13 12 12 11 11 10 10 10 9 9 9 9 9 9 9 9 9 9 8 8 8 8 8 7 7 7 7 7 7 7 7 7 7 7 7 7 7 7 7 7 7
13 13 13 12 12 11 10 10 10 9 9 9 8 8 8 8 8 8 8 8 7 7 7 7 7 6 6 6 6 6 6 6 6 6 6 6 6 6 6 6 7 7 7
13 13 12 11 11 10 10 9 9 9 8 8 8 8 8 7 7 7 7 6 6 6 6 6 6 6 5 5 5 5 5 5 6 6 6 6 6 6 6 6 6 6 6
12 12 11 11 10 10 9 9 8 8 8 7 7 7 7 6 6 6 6 6 5 5 5 5 5 5 5 5 5 4 4 4 5 5 5 5 5 5 5 5 5 5 5
11 11 10 10 9 9 9 8 8 7 7 7 6 6 6 6 5 5 5 5 5 5 4 4 4 4 4 4 4 4 4 4 4 3 4 4 4 4 4 4 4 4 4
10 10 10 9 9 8 8 7 7 7 6 6 6 5 5 5 5 5 4 4 4 4 4 4 4 3 3 3 3 3 3 3 3 3 3 3 3 3 3 3 3 3 3
10 9 9 8 8 8 7 7 7 6 6 5 5 5 5 4 4 4 4 4 4 3 3 3 3 3 3 3 2 2 3 3 3 3 2 2 2 2 2 2 2 2 2
9 8 8 8 7 7 7 6 6 6 5 5 5 4 4 4 4 3 3 3 3 3 3 3 3 2 2 2 2 2 2 2 2 2 2 2 2 1 1 1 1 1 1
Wind_Speed
2 2 2 2 2 3 4 5 5 5 5 5 5 5 4 4 3 3 3 2 3 2 2 3 4 4 3 4 4 4 4 4 5 3 2 2 4 5 4 6 6 8 10
2 2 1 2 2 3 4 4 4 5 5 5 5 5 4 4 3 3 3 2 2 2 2 3 3 3 4 4 3 4 4 4 5 5 3 3 4 4 4 5 5 6 7
3 2 1 1 2 3 3 4 4 4 4 4 4 4 4 4 4 3 3 2 1 2 2 2 3 3 4 4 4 4 4 4 4 5 4 3 3 3 4 4 5 4 6
3 3 2 1 2 2 3 3 4 4 4 4 4 4 4 4 4 3 3 3 2 2 2 2 3 3 4 4 4 5 4 5 5 5 4 4 3 3 4 4 4 4 4
4 3 2 2 2 2 2 3 3 4 4 4 4 4 4 4 4 5 3 3 2 2 2 2 2 2 2 3 4 4 5 5 5 5 5 4 4 4 5 4 4 4 4
5 3 3 2 2 2 3 3 3 3 4 4 4 4 4 3 5 6 6 3 3 3 3 2 1 1 1 3 3 4 5 6 6 5 5 6 5 5 4 4 4 4 4
5 4 3 3 3 3 3 2 3 3 3 4 3 4 4 4 4 4 5 4 3 3 4 3 2 1 2 2 3 5 5 6 6 6 6 6 5 5 5 5 5 4 4
5 4 3 3 3 2 2 2 3 3 3 3 3 4 3 3 4 4 5 4 3 3 3 3 3 2 2 2 2 3 3 4 5 6 6 6 5 4 5 5 4 4 4
5 4 3 3 2 2 2 2 3 3 3 3 3 3 3 3 4 4 6 3 3 3 3 4 4 3 4 4 3 2 2 2 3 4 4 4 3 3 4 4 4 4 4
5 4 3 2 2 2 2 2 2 3 3 3 2 3 3 4 5 6 7 3 3 3 2 2 4 5 5 4 4 3 3 3 2 2 3 5 5 6 7 7 6 6 4
5 4 4 3 2 1 1 2 2 2 2 2 2 2 2 4 4 5 6 3 3 3 3 3 4 5 5 4 5 4 4 4 3 2 2 2 3 3 4 5 6 6 6
6 5 4 3 1 1 0 1 1 1 1 1 2 2 2 3 4 5 5 4 6 3 3 3 4 6 5 5 4 5 5 4 2 2 1 2 2 3 3 4 4 5 5
7 6 4 4 2 1 1 1 1 1 1 2 2 2 3 3 3 2 3 3 4 2 3 5 5 6 3 2 4 4 4 2 2 2 2 2 3 3 3 3 3 3 4
8 7 5 4 3 2 1 1 1 2 2 2 2 2 3 3 4 4 2 1 1 0 1 1 1 1 2 3 3 3 3 3 3 3 3 3 3 3 3 2 3 3 4
8 7 6 5 4 3 3 3 2 4 4 3 3 3 3 3 6 9 6 4 3 3 2 2 2 3 4 4 4 4 4 4 3 4 4 4 3 3 3 3 3 3 4
8 7 5 5 4 4 4 5 7 5 8 7 7 5 4 5 6 7 6 6 6 5 2 2 3 3 4 4 4 4 4 5 5 4 4 4 4 4 4 4 4 4 5
9 7 6 5 5 4 4 4 4 5 6 7 7 7 6 6 6 6 5 5 5 3 3 3 3 4 4 4 4 4 4 5 4 4 4 4 4 4 4 4 4 5 5
9 7 7 5 5 5 4 4 3 3 3 3 6 7 6 6 6 6 4 2 4 5 4 4 4 4 4 4 4 4 4 4 4 4 4 4 4 5 5 5 5 6 6
9 7 7 6 5 5 5 4 4 3 3 3 3 5 5 3 4 5 4 4 4 4 4 4 4 4 4 5 5 5 5 5 6 5 5 5 5 5 5 6 6 7 7
8 8 8 7 7 6 5 5 4 4 3 2 2 3 3 2 3 4 4 4 4 4 4 4 4 5 5 5 5 5 5 5 6 6 6 6 6 6 7 8 7 8 8
9 10 10 7 6 6 5 5 4 4 3 3 3 4 4 2 3 4 4 4 4 4 4 4 4 4 5 5 5 6 6 6 6 6 7 7 7 7 7 7 8 8 8
9 9 8 8 7 6 6 5 4 4 4 3 3 3 2 1 2 2 3 3 3 3 3 3 4 4 5 5 6 6 6 6 7 7 8 8 8 8 8 8 8 8 8
9 9 9 8 7 7 6 5 5 4 4 3 3 2 2 1 1 1 2 2 2 2 3 3 4 4 5 5 5 5 6 7 7 8 9 9 9 8 8 9 10 11 10
10 10 9 8 8 7 6 6 5 4 4 3 3 2 1 1 0 1 1 2 2 3 3 4 4 5 7 6 6 6 7 8 10 9 11 10 10 9 9 10 10 11 11
9 9 9 8 8 7 6 6 5 5 4 3 2 2 1 0 0 1 2 2 3 3 4 4 4 5 7 8 8 8 9 10 11 12 11 10 11 11 11 12 11 12 12
9 9 8 8 7 7 6 6 5 5 4 3 2 2 1 1 1 2 2 3 3 4 4 4 5 7 8 8 9 10 12 13 13 14 12 10 10 10 11 10 13 12 13
Wind_Direction
230 252 271 297 313 317 324 329 329 329 332 333 334 338 335 333 330 318 311 302 277 277 267 251 247 248 233 230 232 235 236 242 249 248 235 230 216 220 205 216 214 212 207
213 239 266 292 304 317 331 332 328 327 330 336 344 348 351 346 344 334 326 310 284 283 279 263 253 243 234 233 229 227 228 237 247 251 241 235 233 218 215 214 215 213 213
194 215 241 263 305 322 330 332 333 332 335 340 346 353 353 353 356 353 347 336 315 300 295 283 269 252 240 229 227 228 229 226 234 247 251 249 242 220 220 219 215 216 216
192 208 232 256 287 305 320 327 333 335 335 339 345 350 353 355 354 355 356 353 350 332 310 295 286 264 250 242 232 230 230 231 231 240 245 246 240 226 223 219 219 213 217
193 208 226 242 256 285 305 316 327 334 332 338 343 349 356 355 1 355 354 354 348 337 326 323 325 326 299 270 255 238 228 232 232 234 239 240 234 222 223 220 227 224 230
199 210 216 235 241 266 288 306 322 326 328 334 339 347 355 1 15 354 331 339 344 345 343 335 317 263 252 239 265 270 261 243 239 237 238 238 239 232 227 225 224 229 232
200 201 213 226 233 256 276 292 303 311 323 325 334 340 344 11 12 344 326 320 330 342 346 342 330 322 259 243 214 222 239 247 257 259 250 245 245 238 230 228 228 243 248
196 197 203 224 234 248 269 286 294 308 320 319 331 337 338 2 7 336 311 299 319 335 344 341 333 342 351 310 251 232 237 243 248 251 259 258 255 248 238 238 238 250 265
191 195 193 202 218 239 262 283 294 303 310 310 323 329 332 1 23 343 308 301 317 341 355 358 346 349 34 330 284 257 255 257 228 238 270 275 281 262 241 226 224 229 246
185 188 180 188 208 242 273 291 299 300 299 302 327 333 346 357 30 5 325 306 321 335 354 5 39 11 10 332 291 288 286 294 288 242 233 227 231 215 212 223 227 231 244
173 172 169 178 199 240 289 303 305 308 313 319 339 353 5 8 30 18 349 330 331 335 351 360 28 32 13 353 318 317 333 318 300 291 280 273 258 241 229 230 235 237 240
162 164 167 170 175 175 152 342 336 335 337 351 1 16 14 26 21 24 16 358 337 346 356 7 33 31 23 15 1 9 352 313 303 306 310 305 294 286 273 257 248 250 252
161 164 166 161 154 143 134 108 31 5 354 4 10 13 18 16 30 39 23 16 355 355 30 36 24 10 350 46 43 5 341 341 345 338 331 331 328 316 303 291 279 265 266
166 168 166 165 156 138 110 71 39 11 1 1 4 7 13 17 10 3 4 26 143 185 38 110 159 16 13 18 18 16 13 15 356 344 336 332 330 321 309 295 280 274 268
172 172 170 166 158 139 114 65 57 54 33 9 5 2 359 12 26 14 359 3 5 7 355 30 33 29 27 22 20 20 13 10 3 353 343 334 327 321 316 311 291 279 270
177 175 172 166 160 157 142 115 74 71 69 58 39 18 51 44 28 25 25 20 15 4 23 46 35 28 21 14 8 8 9 5 357 350 346 340 331 325 319 314 303 291 285
178 174 170 169 166 167 164 159 142 125 108 78 63 52 46 42 42 38 36 37 32 22 58 46 34 24 16 11 7 2 360 357 347 344 342 340 335 327 321 319 315 308 299
176 169 168 166 166 167 165 164 162 159 143 114 90 69 56 49 41 26 1 27 59 56 48 40 30 21 11 3 358 352 348 348 345 341 339 334 329 324 320 316 310 309 306
171 169 166 161 159 157 155 153 147 143 134 121 109 95 86 89 86 48 23 50 49 47 41 33 23 14 8 0 355 348 346 346 345 338 335 331 327 321 316 311 308 306 300
164 154 158 159 157 155 154 152 148 143 134 117 95 76 82 75 67 61 53 47 45 41 33 27 21 12 4 359 353 348 344 344 343 340 336 332 327 320 313 310 308 305 302
159 157 161 162 159 157 157 155 151 148 139 118 91 67 28 65 66 60 52 45 38 31 23 15 10 4 360 353 347 344 344 343 341 336 332 328 325 320 314 309 307 305 302
162 162 165 164 161 160 157 157 155 151 146 135 120 112 113 89 72 63 53 43 33 21 10 2 1 2 356 350 346 343 341 340 338 334 328 324 320 316 314 311 307 305 303
164 163 162 162 160 154 162 162 161 159 154 147 141 133 125 96 76 55 40 23 6 357 357 353 349 350 350 347 346 342 338 337 334 329 325 320 316 312 310 308 308 307 302
167 166 165 163 164 166 166 165 163 160 158 155 153 148 139 124 70 21 356 349 344 344 344 344 341 339 339 338 335 336 340 337 329 322 319 313 310 308 306 302 300 300 301
168 168 168 169 169 169 168 167 167 166 165 165 164 161 160 184 312 324 332 335 332 331 332 330 329 330 332 331 329 330 341 336 325 318 314 309 306 304 303 302 301 299 297
168 169 170 171 172 172 173 173 173 173 173 174 181 188 206 251 287 306 317 323 323 322 324 326 327 326 324 324 330 334 330 322 316 311 307 304 301 300 302 299 299 297 296
Height
1506 1505 1504 1503 1502 1501 1499 1497 1495 1492 1490 1488 1486 1483 1481 1480 1478 1476 1475 1474 1474 1474 1474 1475 1475 1476 1477 1478 1479 1480 1482 1483 1485 1486 1486 1487 1488 1490 1492 1494 1496 1499 1501
1504 1504 1503 1502 1501 1500 1498 1496 1494 1492 1490 1488 1486 1484 1482 1480 1478 1476 1475 1474 1474 1473 1473 1474 1474 1474 1475 1476 1477 1478 1479 1481 1483 1483 1484 1485 1486 1487 1489 1491 1493 1495 1497
1503 1503 1502 1501 1500 1499 1498 1496 1494 1492 1490 1488 1486 1484 1482 1480 1478 1476 1475 1474 1473 1473 1473 1473 1473 1473 1474 1474 1475 1476 1477 1478 1480 1481 1482 1483 1484 1485 1486 1488 1490 1491 1493
1501 1501 1501 1500 1499 1498 1497 1495 1494 1492 1490 1488 1486 1484 1483 1481 1479 1477 1475 1475 1474 1473 1472 1472 1472 1472 1472 1473 1473 1474 1475 1476 1477 1478 1479 1480 1481 1482 1484 1485 1487 1488 1489
1500 1500 1500 1499 1498 1497 1496 1495 1493 1491 1490 1488 1486 1485 1483 1481 1479 1478 1476 1475 1474 1473 1472 1471 1471 1470 1470 1471 1472 1473 1473 1474 1475 1476 1477 1478 1478 1479 1481 1482 1483 1485 1486
1498 1498 1498 1498 1497 1496 1495 1494 1493 1491 1490 1488 1487 1485 1483 1481 1479 1478 1476 1475 1474 1473 1472 1471 1470 1470 1469 1469 1470 1470 1471 1472 1473 1474 1474 1475 1476 1477 1478 1479 1480 1481 1483
1497 1496 1496 1496 1496 1495 1494 1493 1492 1491 1489 1488 1487 1485 1483 1481 1479 1478 1476 1475 1474 1473 1472 1471 1470 1469 1468 1468 1468 1468 1469 1470 1471 1471 1472 1472 1473 1474 1475 1476 1477 1478 1479
1495 1495 1495 1495 1494 1494 1493 1492 1491 1490 1488 1487 1486 1484 1483 1481 1480 1478 1477 1476 1475 1473 1472 1471 1470 1469 1468 1468 1468 1468 1468 1468 1468 1469 1470 1470 1471 1471 1472 1473 1473 1475 1475
1493 1493 1493 1493 1493 1492 1492 1491 1490 1489 1488 1487 1485 1484 1482 1481 1479 1478 1476 1476 1475 1474 1472 1470 1469 1469 1468 1467 1467 1467 1467 1467 1466 1466 1467 1467 1468 1468 1469 1470 1471 1472 1472
1491 1491 1491 1491 1491 1491 1490 1489 1488 1487 1486 1486 1484 1483 1482 1480 1479 1477 1476 1475 1474 1473 1472 1470 1469 1468 1467 1467 1467 1467 1466 1466 1465 1465 1465 1465 1465 1465 1466 1467 1468 1469 1469
1488 1489 1489 1490 1490 1489 1489 1488 1487 1486 1485 1484 1483 1482 1481 1479 1478 1477 1475 1474 1474 1473 1472 1471 1469 1467 1467 1466 1465 1465 1465 1464 1464 1464 1463 1463 1463 1463 1463 1464 1464 1465 1466
1486 1487 1488 1488 1488 1488 1487 1486 1486 1485 1484 1483 1482 1481 1480 1479 1477 1476 1475 1474 1473 1472 1471 1470 1469 1467 1466 1465 1465 1464 1463 1463 1463 1462 1462 1461 1461 1461 1461 1461 1461 1461 1461
1484 1485 1486 1486 1486 1486 1486 1485 1485 1484 1483 1483 1482 1481 1480 1478 1477 1475 1474 1473 1472 1471 1470 1469 1468 1467 1466 1465 1464 1463 1463 1462 1462 1461 1461 1460 1460 1459 1458 1458 1458 1458 1458
1482 1483 1484 1484 1484 1484 1484 1484 1483 1483 1482 1481 1481 1480 1479 1477 1476 1475 1474 1472 1471 1471 1470 1469 1468 1467 1466 1465 1464 1463 1462 1462 1461 1460 1460 1459 1458 1457 1456 1456 1455 1455 1455
1480 1481 1481 1482 1482 1483 1482 1482 1482 1481 1481 1480 1479 1479 1478 1477 1475 1474 1473 1472 1471 1470 1469 1469 1468 1467 1466 1465 1464 1463 1462 1461 1460 1459 1458 1457 1457 1456 1455 1454 1453 1452 1452
1477 1478 1479 1479 1480 1480 1481 1480 1480 1479 1479 1478 1477 1477 1476 1475 1474 1473 1472 1471 1470 1469 1469 1468 1467 1466 1466 1464 1463 1462 1461 1460 1459 1458 1457 1456 1455 1454 1453 1452 1451 1450 1449
1473 1475 1476 1477 1477 1478 1479 1479 1479 1478 1477 1477 1476 1475 1475 1474 1473 1472 1471 1470 1469 1468 1468 1467 1466 1466 1465 1464 1463 1461 1460 1459 1458 1457 1456 1454 1453 1452 1451 1450 1449 1448 1447
1470 1471 1472 1473 1474 1475 1476 1477 1477 1477 1477 1476 1475 1474 1473 1473 1472 1471 1470 1469 1468 1467 1467 1466 1465 1465 1464 1463 1462 1460 1459 1458 1457 1455 1454 1453 1452 1450 1449 1448 1446 1445 1444
1466 1467 1469 1470 1471 1472 1473 1474 1475 1475 1475 1475 1474 1473 1472 1472 1471 1470 1469 1469 1468 1467 1466 1465 1464 1464 1463 1462 1460 1459 1458 1456 1455 1454 1452 1451 1449 1448 1447 1445 1444 1442 1441
1461 1463 1465 1467 1469 1470 1471 1472 1473 1473 1473 1473 1473 1472 1471 1471 1470 1469 1468 1467 1467 1466 1465 1464 1463 1462 1461 1460 1458 1457 1456 1454 1453 1451 1450 1448 1447 1445 1444 1442 1441 1439 1437
1458 1460 1462 1464 1466 1467 1468 1469 1470 1471 1471 1472 1471 1470 1470 1470 1469 1468 1468 1467 1466 1465 1464 1463 1462 1461 1459 1458 1457 1455 1454 1452 1451 1449 1447 1445 1444 1442 1440 1438 1437 1435 1433
1454 1456 1458 1461 1462 1464 1466 1467 1468 1469 1469 1469 1469 1469 1468 1468 1468 1468 1467 1466 1465 1464 1463 1462 1461 1459 1457 1456 1454 1453 1451 1450 1448 1446 1444 1442 1440 1438 1436 1434 1432 1430 1428
1450 1453 1455 1458 1459 1461 1463 1464 1465 1466 1467 1467 1468 1468 1467 1467 1467 1466 1465 1464 1463 1462 1461 1460 1458 1457 1455 1453 1452 1450 1448 1446 1444 1442 1440 1438 1436 1434 1432 1429 1427 1425 1423
1447 1450 1452 1455 1457 1458 1460 1462 1463 1464 1465 1465 1466 1466 1466 1465 1465 1464 1463 1462 1461 1460 1459 1457 1456 1454 1452 1450 1449 1447 1445 1442 1440 1438 1436 1433 1431 1429 1427 1425 1422 1420 1418
1443 1446 1449 1452 1454 1456 1457 1459 1460 1462 1462 1463 1463 1464 1463 1463 1463 1462 1461 1460 1459 1457 1456 1454 1452 1451 1449 1447 1445 1443 1440 1438 1436 1433 1431 1428 1426 1424 1421 1419 1416 1414 1412
1440 1444 1446 1449 1451 1453 1454 1456 1458 1459 1460 1460 1461 1461 1461 1460 1460 1459 1458 1457 1455 1454 1452 1451 1449 1447 1445 1442 1440 1438 1435 1433 1431 1428 1426 1423 1420 1418 1415 1413 1410 1408 1406